Location: Days
(41.3591°N, 106.7339°W)
Time: 19:02:28
(UTC+00:00)

AO-7 - Visible Passes

Search period start: 29 June 2022 00:00
Search period end: 09 July 2022 00:00
Orbit: 1439 x 1459 km, 101.9° (Epoch: 29 June)

Date Brightness Start Highest point End Pass type
(mag) Time Alt. Az. Time Alt. Az. Time Alt. Az.
29 Jun ? 09:43:30 10° ENE 09:46:37 12° E 09:49:44 10° ESE visible
30 Jun ? 10:33:14 10° NE 10:40:22 31° E 10:47:29 10° SSE visible
01 Jul ? 09:37:59 10° ENE 09:39:26 10° E 09:40:52 10° E visible
02 Jul ? 10:26:23 10° NE 10:33:15 27° E 10:40:04 10° SSE visible
04 Jul ? 10:19:35 10° NE 10:26:06 25° E 10:32:35 10° SE visible
06 Jul ? 10:12:49 10° NE 10:18:57 22° E 10:25:03 10° SE visible
07 Jul ? 11:04:23 10° NNE 11:12:24 48° E 11:20:23 10° S visible
08 Jul ? 10:06:08 10° NE 10:11:48 20° E 10:17:26 10° SE visible
